Tracking 28081 objects as of 27-Sep-2023
HD Live streaming from Space Station
objects crossing your sky now

STARLINK-3264

Track STARLINK-3264 now!
10-day predictions
STARLINK-3264 is classified as:


NORAD ID: 50198
Int'l Code: 2021-125AU
Perigee: 545.8 km
Apogee: 548.0 km
Inclination: 53.2 °
Period: 95.4 minutes
Semi major axis: 6917 km
RCS: Unknown
Launch date: December 18, 2021
Source: United States (US)
Launch site: AIR FORCE WESTERN TEST RANGE (AFWTR)
Your satellite tracking list
Your tracking list is empty




NASA's NSSDC Master Catalog

Two Line Element Set (TLE):
1 50198U 21125AU  23270.37068061  .00004894  00000-0  32535-3 0  9995
2 50198  53.2159 293.8779 0001567 100.5726 259.5442 15.08841691101247
Source of the keplerian elements: AFSPC